"startDT [UTC]","vpos","CH4 [ppm]","stdev(CH4) [ppm]","CO2 [ppm]","stdev(CO2) [ppm]","H2O [ppm]","stdev(H2O)","p_LGR [torr]","T_LGR [C]","mt1_LGR [us]","mt2_LGR [us]","T_ECpre [C]","T_EC1 [C]","T_EC2 [C]","p_inlet [hPa]","p_in [hPa]","p_out [hPa]","T_inlet [C]","RH_inlet [%]","dwpt_inlet [C]","T_vent [C]","RH_vent [%]","dwpt_vent [C]","flow_vent [l min-1]","flow_inlet [l min-1]","dwpt_sample [C]","T_room [C]"
2012-01-10 00:00:00,0.0,1.9302,0.0009,402.70,0.22,7.6,17.4,138.13,27.98,24.59,36.30,0.04,-272.74,-272.74,-49,553,-935,22.5,2.0,-29.2,22.7,2.1,-28.8,5.73,2.43,-28.7,27.8
2012-01-10 00:01:00,0.0,1.9300,0.0010,402.79,0.23,4.7,11.9,138.13,27.98,24.60,36.30,0.04,-272.74,-272.74,-49,553,-935,22.5,2.0,-29.3,22.7,2.0,-28.9,5.73,2.48,-28.7,27.8
2012-01-10 00:02:00,0.0,1.9301,0.0010,402.82,0.23,1.8,7.6,138.13,27.98,24.60,36.30,0.04,-272.74,-272.74,-49,553,-935,22.5,2.0,-29.3,22.7,2.0,-28.9,5.73,2.30,-28.7,27.8
2012-01-10 00:03:00,0.0,1.9281,0.0010,402.68,0.23,5.6,13.4,138.13,27.98,24.59,36.30,0.04,-272.74,-272.74,-49,553,-935,22.6,2.0,-29.2,22.7,2.0,-28.8,5.73,2.52,-28.7,27.8
2012-01-10 00:04:00,0.0,1.9276,0.0009,402.51,0.24,7.7,15.0,138.13,27.99,24.59,36.31,0.04,-272.74,-272.74,-49,553,-935,22.6,2.0,-29.2,22.7,2.0,-28.9,5.73,2.35,-28.7,27.8
2012-01-10 00:05:00,0.0,1.9275,0.0010,402.60,0.20,2.8,12.2,138.13,27.99,24.59,36.30,0.04,-272.74,-272.74,-49,553,-935,22.6,2.0,-29.3,22.7,2.0,-28.9,5.73,2.39,-28.7,27.9
2012-01-10 00:06:00,0.0,1.9277,0.0009,402.64,0.22,6.3,15.3,138.13,27.99,24.60,36.30,0.04,-272.74,-272.74,-49,553,-935,22.6,2.0,-29.4,22.6,2.0,-29.0,5.73,2.50,-28.7,27.9
2012-01-10 00:07:00,0.0,1.9291,0.0014,402.66,0.22,5.2,13.3,138.13,27.99,24.60,36.31,0.04,-272.74,-272.74,-49,553,-935,22.6,2.0,-29.4,22.7,2.0,-29.0,5.73,2.30,-28.7,27.9
2012-01-10 00:08:00,0.0,1.9302,0.0008,402.84,0.22,8.5,16.8,138.13,27.99,24.60,36.30,0.04,-272.74,-272.74,-49,553,-935,22.6,1.9,-29.5,22.7,2.0,-29.2,5.73,2.49,-28.7,27.8
2012-01-10 00:09:00,0.0,1.9301,0.0010,402.66,0.20,4.4,10.4,138.13,27.99,24.59,36.30,0.04,-272.74,-272.74,-49,553,-935,22.6,1.9,-29.5,22.7,2.0,-29.2,5.73,2.41,-28.7,27.8
2012-01-10 00:10:00,0.0,1.9284,0.0011,402.52,0.19,4.7,11.8,138.13,27.99,24.59,36.30,0.04,-272.74,-272.74,-49,553,-935,22.6,1.9,-29.5,22.7,2.0,-29.3,5.73,2.34,-28.7,27.8
2012-01-10 00:11:00,0.0,1.9255,0.0015,402.28,0.24,5.2,14.4,138.13,27.99,24.59,36.30,0.04,-272.74,-272.74,-49,553,-935,22.6,1.9,-29.5,22.7,2.0,-29.3,5.73,2.53,-28.7,27.9
2012-01-10 00:12:00,0.0,1.9233,0.0009,402.14,0.23,4.8,13.1,138.13,27.99,24.59,36.31,0.04,-272.74,-272.74,-49,553,-935,22.6,1.9,-29.5,22.7,2.0,-29.2,5.73,2.31,-28.7,27.9
2012-01-10 00:13:00,0.0,1.9235,0.0010,402.25,0.19,5.0,14.5,138.13,27.99,24.59,36.30,0.04,-272.74,-272.74,-49,554,-935,22.6,2.0,-29.4,22.7,2.0,-29.2,5.73,2.46,-28.7,27.9
2012-01-10 00:14:00,0.0,1.9248,0.0010,402.34,0.24,3.6,11.2,138.13,27.99,24.59,36.30,0.04,-272.74,-272.74,-49,553,-935,22.6,2.0,-29.4,22.7,2.0,-29.1,5.73,2.46,-28.7,27.9
2012-01-10 00:15:00,0.0,1.9238,0.0009,402.27,0.23,7.5,16.6,138.13,27.99,24.59,36.30,0.04,-272.74,-272.74,-49,553,-935,22.6,2.0,-29.4,22.7,2.0,-29.2,5.73,2.31,-28.7,27.8
2012-01-10 00:16:00,0.0,1.9232,0.0012,402.11,0.21,6.0,13.2,138.13,27.99,24.60,36.31,0.04,-272.74,-272.74,-49,554,-935,22.6,2.0,-29.4,22.7,2.0,-29.0,5.73,2.53,-28.7,27.8
2012-01-10 00:17:00,0.0,1.9231,0.0011,402.20,0.24,2.7,9.4,138.13,27.99,24.59,36.30,0.04,-272.74,-272.74,-49,553,-935,22.6,2.0,-29.2,22.7,2.0,-28.9,5.73,2.34,-28.7,27.8
2012-01-10 00:18:00,0.0,1.9226,0.0011,402.19,0.24,5.0,14.7,138.13,27.99,24.59,36.30,0.04,-272.74,-272.74,-49,553,-935,22.6,2.0,-29.2,22.7,2.0,-28.9,5.73,2.41,-28.6,27.8
2012-01-10 00:19:00,0.0,1.9219,0.0010,402.12,0.21,4.1,11.2,138.13,27.99,24.59,36.30,0.04,-272.74,-272.74,-49,553,-935,22.6,2.0,-29.3,22.7,2.0,-29.0,5.73,2.49,-28.6,27.8
2012-01-10 00:20:00,0.0,1.9221,0.0011,402.06,0.21,5.4,15.0,138.13,28.00,24.59,36.30,0.04,-272.74,-272.74,-49,553,-935,22.6,2.0,-29.4,22.7,2.0,-29.0,5.73,2.30,-28.7,27.8
2012-01-10 00:21:00,0.0,1.9211,0.0008,401.96,0.24,10.5,17.9,138.13,28.00,24.59,36.30,0.04,-272.74,-272.74,-49,553,-935,22.6,2.0,-29.3,22.7,2.0,-29.1,5.73,2.50,-28.7,27.8
2012-01-10 00:22:00,0.0,1.9206,0.0010,401.98,0.21,5.0,12.1,138.13,28.00,24.60,36.30,0.04,-272.74,-272.74,-49,553,-935,22.6,1.9,-29.5,22.7,2.0,-29.2,5.73,2.41,-28.7,27.8
2012-01-10 00:23:00,0.0,1.9211,0.0009,402.05,0.21,5.3,14.6,138.13,28.00,24.60,36.30,0.04,-272.74,-272.74,-49,553,-935,22.6,1.9,-29.4,22.7,2.0,-29.1,5.73,2.33,-28.7,27.8
2012-01-10 00:24:00,0.0,1.9216,0.0009,402.12,0.29,4.6,10.9,138.13,28.00,24.60,36.30,0.04,-272.74,-272.74,-49,553,-935,22.6,2.0,-29.2,22.7,2.0,-28.9,5.73,2.53,-28.7,27.9
2012-01-10 00:25:00,0.0,1.9221,0.0012,402.15,0.22,7.9,15.1,138.13,28.00,24.60,36.30,0.04,-272.74,-272.74,-49,553,-935,22.6,2.0,-28.9,22.7,2.1,-28.7,5.73,2.32,-28.7,27.8
2012-01-10 00:26:00,0.0,1.9228,0.0013,402.20,0.21,6.3,13.7,138.13,28.00,24.59,36.30,0.04,-272.74,-272.74,-49,553,-935,22.6,2.1,-28.7,22.7,2.1,-28.4,5.73,2.44,-28.7,27.9
2012-01-10 00:27:00,0.0,1.9204,0.0012,402.12,0.22,6.8,17.3,138.13,28.00,24.59,36.30,0.04,-272.74,-272.74,-49,553,-935,22.6,2.1,-28.4,22.7,2.2,-28.1,5.73,2.47,-28.7,27.9
2012-01-10 00:28:00,0.0,1.9208,0.0009,401.99,0.25,5.9,13.8,138.13,28.00,24.59,36.31,0.04,-272.74,-272.74,-49,553,-935,22.6,2.2,-28.4,22.7,2.2,-28.0,5.73,2.31,-28.7,27.8
2012-01-10 00:29:00,0.0,1.9205,0.0010,401.97,0.24,4.5,14.1,138.13,28.00,24.59,36.30,0.04,-272.74,-272.74,-49,554,-935,22.6,2.1,-28.4,22.7,2.2,-28.0,5.73,2.52,-28.7,27.8
2012-01-10 00:30:00,0.0,1.9200,0.0008,401.92,0.20,3.8,11.7,138.13,28.00,24.60,36.31,0.04,-272.74,-272.74,-49,554,-935,22.6,2.2,-28.4,22.7,2.2,-28.0,5.73,2.38,-28.7,27.8
2012-01-10 00:31:00,0.0,1.9207,0.0009,401.97,0.21,5.7,13.8,138.13,28.00,24.59,36.30,0.04,-272.74,-272.74,-49,553,-935,22.6,2.2,-28.3,22.7,2.2,-28.0,5.73,2.35,-28.7,27.8
2012-01-10 00:32:00,0.0,1.9205,0.0009,402.05,0.24,7.3,14.9,138.13,28.00,24.60,36.30,0.04,-272.74,-272.74,-49,554,-935,22.6,2.1,-28.4,22.7,2.2,-28.0,5.73,2.53,-28.7,27.8
2012-01-10 00:33:00,0.0,1.9210,0.0009,402.03,0.23,9.2,19.3,138.13,28.00,24.59,36.30,0.04,-272.74,-272.74,-49,553,-935,22.6,2.1,-28.5,22.7,2.2,-28.1,5.73,2.31,-28.7,27.8
2012-01-10 00:34:00,0.0,1.9210,0.0008,402.06,0.22,5.1,12.0,138.13,28.00,24.60,36.30,0.04,-272.74,-272.74,-49,553,-935,22.6,2.1,-28.6,22.7,2.2,-28.2,5.73,2.45,-28.7,27.9
2012-01-10 00:35:00,0.0,1.9211,0.0010,402.03,0.18,6.7,14.6,138.13,28.00,24.59,36.30,0.04,-272.74,-272.74,-49,554,-935,22.6,2.1,-28.7,22.7,2.1,-28.3,5.73,2.46,-28.7,27.8
2012-01-10 00:36:00,0.0,1.9210,0.0008,401.99,0.20,4.1,10.0,138.13,28.00,24.59,36.30,0.04,-272.74,-272.74,-49,553,-935,22.6,2.1,-28.6,22.7,2.1,-28.4,5.73,2.30,-28.7,27.8
2012-01-10 00:37:00,0.0,1.9211,0.0010,402.05,0.24,8.1,16.0,138.13,28.01,24.59,36.30,0.04,-272.74,-272.74,-49,553,-935,22.6,2.1,-28.8,22.7,2.1,-28.4,5.73,2.52,-28.7,27.8
2012-01-10 00:38:00,0.0,1.9219,0.0009,402.12,0.25,1.7,7.7,138.13,28.01,24.59,36.30,0.04,-272.74,-272.74,-49,553,-935,22.6,2.1,-28.9,22.7,2.1,-28.5,5.73,2.36,-28.7,27.8
2012-01-10 00:39:00,0.0,1.9215,0.0010,402.02,0.22,5.4,13.7,138.13,28.01,24.59,36.30,0.04,-272.74,-272.74,-49,553,-935,22.6,2.0,-29.0,22.7,2.1,-28.7,5.73,2.37,-28.7,27.9
2012-01-10 00:40:00,0.0,1.9207,0.0010,401.94,0.19,3.7,11.0,138.13,28.01,24.59,36.30,0.04,-272.74,-272.74,-49,553,-935,22.6,2.0,-29.1,22.7,2.1,-28.7,5.73,2.52,-28.7,27.9
2012-01-10 00:41:00,0.0,1.9212,0.0010,402.09,0.25,5.2,16.4,138.13,28.01,24.59,36.30,0.04,-272.74,-272.74,-49,554,-935,22.6,2.0,-29.1,22.7,2.1,-28.7,5.73,2.30,-28.7,27.9
2012-01-10 00:42:00,0.0,1.9215,0.0010,401.99,0.23,5.2,12.1,138.13,28.01,24.59,36.30,0.04,-272.74,-272.74,-49,553,-935,22.6,2.0,-29.2,22.7,2.0,-28.8,5.73,2.48,-28.7,27.8
2012-01-10 00:43:00,0.0,1.9210,0.0009,402.07,0.22,4.6,10.3,138.13,28.01,24.60,36.30,0.04,-272.74,-272.74,-49,553,-935,22.6,2.0,-29.2,22.7,2.0,-28.9,5.73,2.43,-28.7,27.8
2012-01-10 00:44:00,0.0,1.9215,0.0008,402.10,0.22,5.3,15.1,138.13,28.01,24.59,36.30,0.04,-272.74,-272.74,-49,554,-935,22.6,2.0,-29.3,22.7,2.0,-28.9,5.73,2.32,-28.7,27.8
2012-01-10 00:45:00,0.0,1.9215,0.0010,402.09,0.20,4.9,14.5,138.13,28.01,24.59,36.31,0.04,-272.74,-272.74,-48,553,-935,22.6,2.0,-29.3,22.7,2.0,-28.9,5.73,2.53,-28.7,27.8
2012-01-10 00:46:00,0.0,1.9225,0.0009,402.16,0.22,4.3,11.1,138.13,28.02,24.59,36.30,0.04,-272.74,-272.74,-49,553,-935,22.6,1.9,-29.5,22.7,2.0,-29.2,5.73,2.33,-28.7,27.8
2012-01-10 00:47:00,0.0,1.9221,0.0009,402.11,0.24,4.4,11.1,138.13,28.02,24.60,36.31,0.04,-272.74,-272.74,-49,554,-935,22.6,1.9,-29.5,22.7,2.0,-29.2,5.73,2.41,-28.7,27.8
2012-01-10 00:48:00,0.0,1.9218,0.0011,402.15,0.22,6.5,16.4,138.13,28.02,24.60,36.31,0.04,-272.74,-272.74,-48,553,-935,22.6,1.9,-29.5,22.7,2.0,-29.2,5.73,2.49,-28.7,27.8
2012-01-10 00:49:00,0.0,1.9228,0.0008,402.18,0.24,5.6,11.8,138.13,28.02,24.59,36.30,0.04,-272.74,-272.74,-49,553,-935,22.6,1.9,-29.5,22.7,2.0,-29.3,5.73,2.30,-28.7,27.8
2012-01-10 00:50:00,0.0,1.9232,0.0008,402.27,0.20,4.7,10.7,138.13,28.02,24.59,36.30,0.04,-272.74,-272.74,-49,553,-935,22.6,1.9,-29.7,22.7,2.0,-29.4,5.73,2.51,-28.7,27.8
2012-01-10 00:51:00,0.0,1.9234,0.0010,402.35,0.27,4.1,12.4,138.13,28.02,24.60,36.30,0.04,-272.74,-272.74,-48,554,-935,22.6,1.9,-29.8,22.7,1.9,-29.5,5.73,2.39,-28.7,27.8
2012-01-10 00:52:00,0.0,1.9245,0.0009,402.28,0.24,7.9,17.7,138.13,28.02,24.59,36.31,0.04,-272.74,-272.74,-49,553,-935,22.6,1.8,-30.0,22.7,1.9,-29.7,5.73,2.35,-28.7,27.8
2012-01-10 00:53:00,0.0,1.9237,0.0010,402.32,0.25,8.0,17.1,138.12,28.02,24.60,36.30,0.04,-272.74,-272.74,-49,553,-935,22.6,1.8,-30.1,22.7,1.9,-29.8,5.73,2.53,-28.7,27.8
2012-01-10 00:54:00,0.0,1.9239,0.0009,402.29,0.23,6.7,14.9,138.13,28.02,24.60,36.31,0.04,-272.74,-272.74,-48,553,-935,22.6,1.8,-30.2,22.7,1.9,-29.8,5.73,2.30,-28.7,27.8
2012-01-10 00:55:00,0.0,1.9234,0.0011,402.30,0.25,5.0,11.4,138.13,28.02,24.60,36.30,0.04,-272.74,-272.74,-49,554,-935,22.6,1.8,-30.1,22.7,1.9,-29.9,5.73,2.48,-28.7,27.8
2012-01-10 00:56:00,0.0,1.9242,0.0008,402.31,0.23,4.4,10.6,138.13,28.03,24.59,36.30,0.04,-272.74,-272.74,-49,553,-935,22.6,1.8,-30.2,22.7,1.8,-30.0,5.73,2.43,-28.6,27.8
2012-01-10 00:57:00,0.0,1.9244,0.0010,402.45,0.21,8.8,16.7,138.13,28.03,24.59,36.30,0.04,-272.74,-272.74,-48,554,-935,22.6,1.8,-30.3,22.7,1.8,-30.0,5.73,2.33,-28.6,27.8
2012-01-10 00:58:00,0.0,1.9234,0.0009,402.31,0.25,8.3,17.0,138.13,28.03,24.60,36.30,0.04,-272.74,-272.74,-49,553,-935,22.6,1.8,-30.5,22.7,1.8,-30.1,5.73,2.53,-28.6,27.8
2012-01-10 00:59:00,0.0,1.9236,0.0009,402.25,0.20,7.2,15.3,138.13,28.03,24.59,36.30,0.04,-272.74,-272.74,-49,553,-935,22.6,1.7,-30.6,22.7,1.8,-30.2,5.73,2.31,-28.7,27.8
2012-01-10 01:00:00,0.0,1.9234,0.0011,402.17,0.21,7.6,18.0,138.13,28.03,24.60,36.31,0.04,-272.74,-272.74,-48,554,-935,22.6,1.7,-30.7,22.7,1.8,-30.3,5.73,2.44,-28.7,27.8
2012-01-10 01:01:00,0.0,1.9240,0.0010,402.35,0.24,8.1,17.6,138.13,28.03,24.59,36.30,0.04,-272.74,-272.74,-49,553,-935,22.6,1.7,-30.6,22.7,1.8,-30.3,5.73,2.47,-28.7,27.8
2012-01-10 01:02:00,0.0,1.9239,0.0010,402.37,0.22,4.4,13.2,138.13,28.03,24.60,36.30,0.04,-272.74,-272.74,-49,553,-935,22.6,1.7,-30.6,22.7,1.8,-30.2,5.73,2.30,-28.7,27.8
2012-01-10 01:03:00,0.0,1.9242,0.0008,402.28,0.26,8.1,17.4,138.13,28.03,24.60,36.31,0.04,-272.74,-272.74,-48,553,-935,22.6,1.7,-30.6,22.7,1.8,-30.2,5.73,2.52,-28.7,27.8
2012-01-10 01:04:00,0.0,1.9240,0.0009,402.32,0.24,8.7,19.6,138.13,28.03,24.60,36.30,0.04,-272.74,-272.74,-49,553,-935,22.6,1.8,-30.4,22.7,1.8,-30.1,5.73,2.36,-28.6,27.8
2012-01-10 01:05:00,0.0,1.9238,0.0008,402.35,0.22,10.6,16.0,138.13,28.03,24.60,36.30,0.04,-272.74,-272.74,-49,554,-935,22.6,1.8,-30.5,22.7,1.8,-30.1,5.73,2.39,-28.6,27.8
2012-01-10 01:06:00,0.0,1.9240,0.0009,402.18,0.24,6.2,12.4,138.13,28.03,24.59,36.31,0.04,-272.74,-272.74,-48,554,-935,22.6,1.7,-30.6,22.7,1.8,-30.2,5.73,2.51,-28.6,27.8
2012-01-10 01:07:00,0.0,1.9239,0.0010,402.27,0.19,3.7,10.6,138.13,28.03,24.59,36.31,0.04,-272.74,-272.74,-49,553,-935,22.7,1.7,-30.8,22.7,1.8,-30.5,5.73,2.29,-28.7,27.8
2012-01-10 01:08:00,0.0,1.9233,0.0010,402.37,0.22,6.3,16.6,138.13,28.03,24.60,36.30,0.04,-272.74,-272.74,-49,553,-935,22.7,1.6,-31.2,22.7,1.7,-30.9,5.73,2.50,-28.6,27.8
2012-01-10 01:09:00,0.0,1.9234,0.0009,402.24,0.25,8.7,18.6,138.13,28.03,24.60,36.30,0.04,-272.74,-272.74,-48,554,-935,22.6,1.6,-31.5,22.7,1.6,-31.1,5.73,2.40,-28.7,27.9
2012-01-10 01:10:00,0.0,1.9236,0.0010,402.35,0.23,8.7,14.6,138.13,28.04,24.60,36.30,0.04,-272.74,-272.74,-49,553,-935,22.7,1.6,-31.5,22.7,1.7,-31.1,5.73,2.35,-28.7,27.8
2012-01-10 01:11:00,0.0,1.9240,0.0009,402.39,0.21,7.3,18.8,138.13,28.04,24.60,36.30,0.04,-272.74,-272.74,-49,553,-935,22.6,1.6,-31.5,22.7,1.6,-31.1,5.73,2.53,-28.6,27.9
2012-01-10 01:12:00,0.0,1.9244,0.0012,402.42,0.22,6.8,15.4,138.13,28.03,24.59,36.31,0.04,-272.74,-272.74,-48,553,-935,22.7,1.6,-31.4,22.7,1.7,-31.1,5.73,2.30,-28.6,27.8
2012-01-10 01:13:00,0.0,1.9236,0.0010,402.28,0.21,4.7,11.9,138.13,28.04,24.59,36.30,0.04,-272.74,-272.74,-49,553,-935,22.7,1.6,-31.3,22.7,1.7,-30.9,5.73,2.48,-28.6,27.8
2012-01-10 01:14:00,0.0,1.9245,0.0010,402.34,0.26,8.3,16.4,138.13,28.04,24.60,36.30,0.04,-272.74,-272.74,-49,553,-935,22.7,1.7,-31.1,22.7,1.7,-30.7,5.73,2.42,-28.7,27.8
2012-01-10 01:15:00,0.0,1.9249,0.0008,402.41,0.23,13.6,21.0,138.13,28.04,24.60,36.31,0.04,-272.74,-272.74,-48,553,-935,22.7,1.7,-31.1,22.7,1.7,-30.7,5.73,2.33,-28.6,27.8
2012-01-10 01:16:00,0.0,1.9250,0.0009,402.42,0.24,3.5,11.6,138.13,28.04,24.60,36.31,0.04,-272.74,-272.74,-49,553,-935,22.7,1.6,-31.1,22.7,1.7,-30.8,5.73,2.53,-28.6,27.8
2012-01-10 01:17:00,0.0,1.9247,0.0009,402.31,0.20,8.0,15.8,138.12,28.04,24.59,36.31,0.04,-272.74,-272.74,-49,554,-935,22.7,1.6,-31.2,22.7,1.7,-30.9,5.73,2.31,-28.7,27.8
2012-01-10 01:18:00,0.0,1.9247,0.0009,402.33,0.21,5.3,12.8,138.12,28.04,24.60,36.31,0.04,-272.74,-272.74,-48,554,-935,22.7,1.6,-31.3,22.7,1.7,-30.9,5.73,2.45,-28.7,27.8
2012-01-10 01:19:00,0.0,1.9252,0.0009,402.45,0.24,5.9,12.5,138.12,28.04,24.59,36.30,0.04,-272.74,-272.74,-49,553,-934,22.7,1.7,-31.1,22.7,1.7,-30.8,5.73,2.46,-28.6,27.8
2012-01-10 01:20:00,0.0,1.9246,0.0009,402.38,0.24,7.6,15.3,138.12,28.04,24.59,36.31,0.04,-272.74,-272.74,-49,553,-935,22.7,1.7,-30.9,22.7,1.7,-30.6,5.73,2.31,-28.7,27.9
2012-01-10 01:21:00,0.0,1.9249,0.0010,402.44,0.24,10.1,19.8,138.13,28.05,24.59,36.30,0.04,-272.74,-272.74,-48,554,-935,22.7,1.7,-30.7,22.7,1.8,-30.3,5.73,2.53,-28.7,27.8
2012-01-10 01:22:00,0.0,1.9249,0.0009,402.42,0.24,7.3,15.8,138.13,28.05,24.60,36.30,0.04,-272.74,-272.74,-49,553,-935,22.7,1.7,-30.5,22.7,1.8,-30.2,5.73,2.35,-28.7,27.8
2012-01-10 01:23:00,0.0,1.9255,0.0009,402.46,0.22,4.2,12.0,138.13,28.05,24.59,36.31,0.04,-272.74,-272.74,-49,553,-935,22.7,1.8,-30.4,22.7,1.8,-30.1,5.73,2.40,-28.7,27.8
2012-01-10 01:24:00,0.0,1.9252,0.0009,402.43,0.28,4.3,12.2,138.12,28.05,24.60,36.31,0.04,-272.74,-272.74,-48,553,-935,22.7,1.8,-30.3,22.7,1.8,-29.9,5.73,2.50,-28.7,27.8
2012-01-10 01:25:00,0.0,1.9254,0.0010,402.47,0.20,4.6,11.3,138.12,28.06,24.59,36.31,0.04,-272.74,-272.74,-49,553,-935,22.7,1.8,-30.1,22.7,1.9,-29.8,5.73,2.30,-28.7,27.8
2012-01-10 01:26:00,0.0,1.9258,0.0012,402.54,0.24,4.8,13.6,138.13,28.05,24.60,36.31,0.04,-272.74,-272.74,-49,554,-935,22.7,1.8,-30.2,22.7,1.9,-29.8,5.73,2.50,-28.7,27.8
2012-01-10 01:27:00,0.0,1.9258,0.0011,402.47,0.26,6.2,13.2,138.13,28.05,24.59,36.31,0.04,-272.74,-272.74,-48,554,-935,22.7,1.8,-30.4,22.7,1.8,-30.1,5.73,2.39,-28.7,27.9
2012-01-10 01:28:00,0.0,1.9258,0.0011,402.47,0.18,4.9,13.6,138.13,28.05,24.59,36.31,0.04,-272.74,-272.74,-49,553,-935,22.7,1.7,-30.6,22.7,1.8,-30.3,5.73,2.35,-28.7,27.9
2012-01-10 01:29:00,0.0,1.9260,0.0008,402.52,0.25,5.0,13.5,138.13,28.06,24.59,36.30,0.04,-272.74,-272.74,-49,553,-935,22.7,1.7,-31.0,22.7,1.7,-30.6,5.73,2.53,-28.7,27.8
2012-01-10 01:30:00,0.0,1.9255,0.0010,402.51,0.22,6.2,12.7,138.13,28.06,24.59,36.30,0.04,-272.74,-272.74,-48,554,-934,22.7,1.6,-31.2,22.8,1.7,-30.8,5.73,2.32,-28.8,27.8
2012-01-10 01:31:00,0.0,1.9254,0.0009,402.60,0.23,3.3,10.6,138.13,28.06,24.59,36.31,0.04,-272.74,-272.74,-49,553,-935,22.7,1.6,-31.2,22.8,1.7,-30.9,5.73,2.43,-28.8,27.9
2012-01-10 01:32:00,0.0,1.9255,0.0009,402.62,0.24,7.2,18.2,138.12,28.06,24.59,36.31,0.04,-272.74,-272.74,-49,554,-934,22.7,1.6,-31.3,22.7,1.7,-30.9,5.73,2.47,-28.8,27.9
2012-01-10 01:33:00,0.0,1.9251,0.0010,402.65,0.22,4.0,11.9,138.13,28.06,24.60,36.30,0.04,-272.74,-272.74,-48,554,-935,22.7,1.6,-31.3,22.8,1.7,-30.9,5.73,2.30,-28.7,27.9
2012-01-10 01:34:00,0.0,1.9252,0.0009,402.77,0.22,5.0,14.2,138.13,28.06,24.60,36.30,0.04,-272.74,-272.74,-49,554,-935,22.7,1.6,-31.3,22.8,1.7,-31.0,5.73,2.52,-28.8,27.8
2012-01-10 01:35:00,0.0,1.9250,0.0011,402.72,0.25,7.8,17.0,138.12,28.06,24.60,36.30,0.04,-272.74,-272.74,-49,553,-935,22.7,1.6,-31.6,22.8,1.6,-31.2,5.73,2.35,-28.8,27.9
2012-01-10 01:36:00,0.0,1.9249,0.0009,402.60,0.22,2.4,10.4,138.12,28.06,24.60,36.31,0.04,-272.74,-272.74,-49,554,-935,22.7,1.6,-31.7,22.8,1.6,-31.3,5.73,2.39,-28.8,27.9
2012-01-10 01:37:00,0.0,1.9252,0.0009,402.70,0.24,6.2,15.6,138.13,28.06,24.59,36.30,0.04,-272.74,-272.74,-49,553,-934,22.7,1.5,-31.8,22.8,1.6,-31.4,5.73,2.50,-28.8,27.9
2012-01-10 01:38:00,0.0,1.9250,0.0010,402.72,0.19,6.8,13.2,138.12,28.06,24.59,36.30,0.04,-272.74,-272.74,-49,554,-935,22.7,1.5,-31.8,22.8,1.6,-31.4,5.73,2.29,-28.8,27.8
2012-01-10 01:39:00,0.0,1.9252,0.0011,402.63,0.26,4.9,13.7,138.12,28.07,24.60,36.30,0.04,-272.74,-272.74,-48,554,-934,22.8,1.5,-31.8,22.8,1.6,-31.4,5.73,2.50,-28.8,27.8
2012-01-10 01:40:00,0.0,1.9255,0.0008,402.51,0.22,4.6,11.9,138.13,28.07,24.60,36.31,0.04,-272.74,-272.74,-49,553,-935,22.8,1.5,-31.8,22.8,1.6,-31.4,5.73,2.41,-28.8,27.8
2012-01-10 01:41:00,0.0,1.9253,0.0008,402.59,0.25,2.4,9.5,138.13,28.07,24.60,36.31,0.04,-272.74,-272.74,-49,553,-935,22.8,1.5,-31.7,22.8,1.6,-31.4,5.73,2.34,-28.8,27.8
2012-01-10 01:42:00,0.0,1.9252,0.0010,402.58,0.20,7.4,13.9,138.13,28.07,24.60,36.31,0.04,-272.74,-272.74,-49,554,-935,22.8,1.6,-31.7,22.8,1.6,-31.3,5.73,2.53,-28.8,27.8
2012-01-10 01:43:00,0.0,1.9250,0.0007,402.59,0.22,2.8,8.5,138.13,28.07,24.60,36.30,0.04,-272.74,-272.74,-49,554,-934,22.8,1.6,-31.5,22.8,1.6,-31.1,5.73,2.32,-28.8,27.8
2012-01-10 01:44:00,0.0,1.9254,0.0009,402.59,0.22,6.0,16.8,138.13,28.07,24.59,36.30,0.04,-272.74,-272.74,-49,553,-934,22.8,1.6,-31.1,22.8,1.7,-30.8,5.73,2.43,-28.8,27.9
2012-01-10 01:45:00,0.0,1.9254,0.0008,402.62,0.23,6.3,14.3,138.12,28.07,24.59,36.30,0.04,-272.74,-272.74,-49,554,-935,22.8,1.7,-30.9,22.8,1.7,-30.5,5.73,2.49,-28.8,27.9
2012-01-10 01:46:00,0.0,1.9254,0.0009,402.59,0.22,5.9,13.2,138.12,28.07,24.59,36.30,0.04,-272.74,-272.74,-48,554,-935,22.8,1.7,-30.6,22.8,1.8,-30.3,5.73,2.29,-28.8,27.9
2012-01-10 01:47:00,0.0,1.9253,0.0008,402.60,0.23,7.8,16.6,138.12,28.07,24.60,36.30,0.04,-272.74,-272.74,-49,553,-935,22.8,1.7,-30.6,22.8,1.8,-30.2,5.73,2.51,-28.8,27.9
2012-01-10 01:48:00,0.0,1.9251,0.0009,402.56,0.25,3.5,10.9,138.12,28.08,24.59,36.31,0.04,-272.74,-272.74,-49,554,-934,22.8,1.7,-30.5,22.8,1.8,-30.2,5.73,2.39,-28.8,27.9
2012-01-10 01:49:00,0.0,1.9246,0.0008,402.70,0.26,4.7,13.3,138.12,28.08,24.59,36.30,0.04,-272.74,-272.74,-48,553,-934,22.8,1.7,-30.6,22.8,1.8,-30.3,5.73,2.36,-28.8,27.9
2012-01-10 01:50:00,0.0,1.9244,0.0010,402.77,0.21,8.5,15.0,138.12,28.08,24.60,36.30,0.04,-272.74,-272.74,-49,554,-935,22.8,1.7,-30.7,22.8,1.8,-30.4,5.73,2.52,-28.8,27.9
2012-01-10 01:51:00,0.0,1.9243,0.0009,402.87,0.21,8.6,18.4,138.12,28.08,24.60,36.31,0.04,-272.74,-272.74,-49,554,-934,22.8,1.7,-30.8,22.8,1.7,-30.5,5.73,2.30,-28.8,27.9
2012-01-10 01:52:00,0.0,1.9246,0.0009,403.00,0.23,0.8,5.8,138.12,28.08,24.59,36.30,0.04,-272.74,-272.74,-48,554,-935,22.8,1.7,-30.8,22.8,1.7,-30.5,5.73,2.47,-28.8,27.9
2012-01-10 01:53:00,0.0,1.9242,0.0009,402.92,0.25,6.7,14.9,138.12,28.08,24.59,36.31,0.04,-272.74,-272.74,-49,553,-934,22.8,1.7,-30.6,22.8,1.8,-30.3,5.73,2.43,-28.8,27.9
2012-01-10 01:54:00,0.0,1.9241,0.0011,402.75,0.21,4.2,11.8,138.13,28.09,24.60,36.31,0.04,-272.74,-272.74,-49,554,-934,22.8,1.7,-30.5,22.8,1.8,-30.2,5.73,2.32,-28.8,27.9
2012-01-10 01:55:00,0.0,1.9241,0.0009,402.72,0.17,4.3,12.7,138.12,28.09,24.59,36.30,0.04,-272.74,-272.74,-48,554,-934,22.8,1.8,-30.3,22.8,1.8,-30.0,5.73,2.53,-28.9,27.9
2012-01-10 01:56:00,0.0,1.9235,0.0010,402.60,0.22,4.4,12.2,138.12,28.09,24.60,36.30,0.04,-272.74,-272.74,-49,554,-934,22.8,1.8,-30.3,22.9,1.8,-29.9,5.73,2.30,-28.9,27.9
2012-01-10 01:57:00,0.0,1.9235,0.0008,402.63,0.27,6.4,18.1,138.13,28.09,24.60,36.30,0.04,-272.73,-272.74,-49,554,-934,22.8,1.8,-30.1,22.8,1.8,-29.8,5.73,2.46,-28.8,27.9
2012-01-10 01:58:00,0.0,1.9238,0.0011,402.68,0.21,3.7,12.7,138.12,28.09,24.60,36.31,0.04,-272.74,-272.74,-48,554,-934,22.8,1.8,-30.2,22.9,1.8,-29.8,5.73,2.44,-28.8,27.9
2012-01-10 01:59:00,0.0,1.9237,0.0010,402.64,0.18,4.3,12.6,138.12,28.09,24.60,36.31,0.04,-272.74,-272.74,-49,554,-934,22.8,1.8,-30.2,22.9,1.8,-29.8,5.73,2.32,-28.9,27.9
2012-01-10 02:00:00,0.0,1.9238,0.0009,402.57,0.22,4.2,10.2,138.12,28.09,24.59,36.31,0.04,-272.74,-272.74,-49,554,-934,22.8,1.8,-30.2,22.9,1.8,-29.8,5.73,2.52,-28.9,27.9
2012-01-10 02:01:00,0.0,1.9234,0.0010,402.71,0.25,5.4,12.8,138.12,28.09,24.60,36.30,0.04,-272.74,-272.74,-48,554,-934,22.8,1.8,-30.1,22.9,1.8,-29.8,5.73,2.37,-28.9,27.9
2012-01-10 02:02:00,0.0,1.9238,0.0010,402.77,0.25,3.8,10.4,138.12,28.09,24.59,36.30,0.04,-272.74,-272.74,-49,554,-934,22.9,1.8,-30.2,22.9,1.8,-29.8,5.73,2.33,-28.9,27.9
2012-01-10 02:03:00,0.0,1.9238,0.0009,402.77,0.22,5.5,13.8,138.13,28.09,24.59,36.31,0.04,-272.74,-272.74,-49,554,-934,22.9,1.8,-30.1,22.9,1.8,-29.8,5.73,2.50,-28.9,28.0
2012-01-10 02:04:00,0.0,1.9234,0.0009,402.78,0.22,11.3,21.5,138.12,28.10,24.60,36.31,0.04,-272.74,-272.74,-49,554,-934,22.9,1.8,-30.0,22.9,1.9,-29.7,5.73,2.44,-28.9,28.0
2012-01-10 02:05:00,0.0,1.9238,0.0008,402.69,0.21,5.7,14.1,138.12,28.10,24.59,36.31,0.04,-272.74,-272.74,-48,554,-934,22.9,1.8,-30.0,22.9,1.9,-29.7,5.73,2.31,-28.9,28.0
2012-01-10 02:06:00,0.0,1.9242,0.0012,402.91,0.24,3.1,9.1,138.12,28.10,24.59,36.31,0.04,-272.74,-272.74,-49,553,-935,22.9,1.8,-29.9,22.9,1.9,-29.6,5.73,2.40,-28.9,27.9
2012-01-10 02:07:00,0.0,1.9237,0.0009,402.94,0.21,7.0,14.9,138.13,28.10,24.60,36.31,0.04,-272.74,-272.74,-49,554,-934,22.9,1.8,-29.8,22.9,1.9,-29.6,5.73,2.52,-28.9,28.0
2012-01-10 02:08:00,0.0,1.9238,0.0010,402.74,0.24,5.8,17.7,138.12,28.11,24.60,36.31,0.04,-272.74,-272.74,-49,554,-935,22.9,1.8,-29.8,22.9,1.9,-29.5,5.73,2.38,-28.9,27.9
2012-01-10 02:09:00,0.0,1.9238,0.0009,402.85,0.22,4.8,11.6,138.12,28.11,24.60,36.30,0.04,-272.74,-272.74,-49,554,-934,22.9,1.8,-29.8,22.9,1.9,-29.5,5.73,2.32,-28.9,27.9
2012-01-10 02:10:00,0.0,1.9243,0.0009,402.77,0.23,3.4,12.0,138.12,28.11,24.59,36.30,0.04,-272.73,-272.74,-48,554,-935,22.9,1.8,-29.8,22.9,1.9,-29.5,5.73,2.46,-28.9,27.9
2012-01-10 02:11:00,0.0,1.9242,0.0009,402.75,0.18,5.2,13.3,138.12,28.11,24.59,36.30,0.04,-272.74,-272.74,-49,554,-935,22.9,1.9,-29.7,22.9,1.9,-29.4,5.73,2.49,-28.9,27.9
2012-01-10 02:12:00,0.0,1.9242,0.0010,402.98,0.30,6.8,15.7,138.12,28.11,24.59,36.30,0.04,-272.74,-272.74,-49,554,-934,22.9,1.9,-29.6,22.9,1.9,-29.3,5.73,2.33,-28.9,27.9
2012-01-10 02:13:00,0.0,1.9248,0.0009,403.79,0.33,4.0,11.1,138.12,28.11,24.59,36.31,0.04,-272.74,-272.74,-49,554,-935,22.9,1.9,-29.7,22.9,1.9,-29.3,5.73,2.35,-28.9,27.9
2012-01-10 02:14:00,0.0,1.9243,0.0010,403.08,0.28,4.0,11.8,138.12,28.11,24.59,36.30,0.04,-272.74,-272.74,-48,554,-934,22.9,1.9,-29.6,22.9,2.0,-29.2,5.73,2.50,-28.9,27.9
2012-01-10 02:15:00,0.0,1.9239,0.0010,403.17,0.25,4.3,12.0,138.12,28.11,24.60,36.31,0.04,-272.74,-272.74,-49,554,-935,22.9,1.9,-29.5,22.9,2.0,-29.1,5.73,2.46,-28.9,27.9
2012-01-10 02:16:00,0.0,1.9244,0.0008,403.27,0.24,4.2,15.1,138.12,28.12,24.60,36.31,0.04,-272.74,-272.74,-49,554,-934,22.9,1.9,-29.4,22.9,2.0,-29.1,5.73,2.31,-28.9,28.0
2012-01-10 02:17:00,0.0,1.9243,0.0009,403.48,0.27,1.5,7.6,138.12,28.12,24.60,36.31,0.04,-272.74,-272.74,-49,554,-934,22.9,1.9,-29.3,22.9,2.0,-29.0,5.73,2.39,-28.9,28.0
2012-01-10 02:18:00,0.0,1.9247,0.0008,403.80,0.23,4.0,14.0,138.12,28.12,24.59,36.31,0.04,-272.74,-272.74,-49,554,-934,22.9,1.9,-29.3,22.9,2.0,-29.0,5.73,2.51,-28.9,27.9